This demonstration page uses our WeatherBlox Daily Observations layout. Learn more.

Left ArrowRight Arrow

36.17497, -115.13722

Hourly Observations for January 3, 2016

Temp ( °F °C ) Dew Point ( °F °C ) Humidity (%) Winds ( mph kmh ) Pressure ( in mb ) Visibility ( mi km ) Precip ( " mm )
12:53 am 00:53 Clear 42 5.6 24 -4.4 49 49 N N/A 30.21 1023 10 16 N/A
1:53 am 01:53 Mostly Clear 41 5 24 -4.4 51 51 N 3 6 30.21 1023 10 16 N/A
2:53 am 02:53 Clear 40 4.4 24 -4.4 53 53 W 5 7 30.20 1023 10 16 N/A
3:53 am 03:53 Clear 42 5.6 24 -4.4 49 49 SW 6 9 30.19 1022 10 16 N/A
4:53 am 04:53 Clear 43 6.1 23 -5 45 45 SW 6 9 30.18 1022 10 16 N/A
5:53 am 05:53 Clear 44 6.7 22 -5.6 41 41 SSW 5 7 30.20 1023 10 16 N/A
6:53 am 06:53 Sunny 43 6.1 22 -5.6 43 43 S 3 6 30.21 1023 10 16 N/A
7:53 am 07:53 Sunny 41 5 24 -4.4 51 51 VRB 3 6 30.22 1023 10 16 N/A
8:53 am 08:53 Mostly Sunny 45 7.2 24 -4.4 44 44 SSE 5 7 30.23 1024 10 16 N/A
9:53 am 09:53 Sunny 49 9.4 24 -4.4 38 38 S 6 9 30.22 1024 10 16 N/A
10:53 am 10:53 Sunny 51 10.6 23 -5 33 33 S 8 13 30.20 1023 10 16 N/A
11:53 am 11:53 Sunny 52 11.1 23 -5 32 32 SW 6 9 30.16 1021 10 16 N/A
12:53 pm 12:53 Sunny 54 12.2 23 -5 30 30 S 7 11 30.11 1020 10 16 N/A
1:53 pm 13:53 Sunny 55 12.8 23 -5 29 29 SSE 8 13 30.09 1019 10 16 N/A
2:53 pm 14:53 Sunny 56 13.3 22 -5.6 27 27 SE 5 7 30.08 1019 10 16 N/A
3:53 pm 15:53 Sunny 55 12.8 22 -5.6 28 28 S 3 6 30.06 1018 10 16 N/A
4:53 pm 16:53 Clear 53 11.7 23 -5 31 31 SW 6 9 30.05 1018 10 16 N/A
5:53 pm 17:53 Clear 52 11.1 23 -5 32 32 SW 5 7 30.04 1017 10 16 N/A
6:53 pm 18:53 Mostly Clear 50 10 23 -5 35 35 SW 5 7 30.04 1017 10 16 N/A
7:53 pm 19:53 Mostly Clear 50 10 23 -5 35 35 N N/A 30.02 1017 10 16 N/A
8:53 pm 20:53 Cloudy 50 10 23 -5 35 35 N N/A 30.01 1016 10 16 N/A
9:53 pm 21:53 Mostly Cloudy 47 8.3 24 -4.4 41 41 NW 3 6 30.01 1016 10 16 N/A
10:53 pm 22:53 Mostly Cloudy 47 8.3 24 -4.4 41 41 N N/A 29.98 1015 10 16 N/A
11:53 pm 23:53 Partly Cloudy 48 8.9 24 -4.4 39 39 N N/A 29.96 1015 10 16 N/A

Powered by AerisWeather